Location: Chamerau
(49.1969°N, 12.7525°E)
Time: 08:55:11
(UTC+00:00)

Cosmos 1943 - Pass Details

Date: 18 September 2020
Orbit: 833 x 850 km, 71.0° (Epoch: 24 October)

Event Time Altitude Azimuth Distance (km) Brightness Sun altitude
Rises 18:01:30 0° 330° (NNW) 3,400 7.0 -8.4°
Reaches altitude 10° 18:03:56 10° 329° (NNW) 2,464 6.3 -8.8°
Maximum altitude 18:09:35 75° 245° (WSW) 876 3.4 -9.7°
Drops below altitude 10° 18:15:13 10° 161° (SSE) 2,460 5.3 -10.6°
Sets 18:17:39 0° 160° (SSE) 3,394 6.0 -10.9°
